1504389600.94,6887,19.94,73506.3,0.45,-1.09,-1.09,0,*7D
1504389602.16,6888,19.94,73506.0,0.45,-1.09,-1.09,0,*72
1504389603.38,6889,19.94,73500.5,0.45,-1.09,-1.01,0,*7B
1504389604.61,6890,19.94,73500.0,0.45,-1.09,-1.01,0,*73
1504389605.83,6891,19.94,73496.5,0.45,-1.09,-1.09,0,*7A
1504389607.05,6892,19.94,73498.5,0.45,-1.09,-1.09,0,*79
1504389608.3,6893,19.94,73502.5,0.47,-1.01,-1.09,0,*72
1504389609.52,6894,19.94,73500.8,0.45,-1.01,-1.09,0,*77
1504389610.75,6895,19.94,73500.0,0.45,-1.01,-1.01,0,*7E
1504389612.0,6896,19.94,73500.5,0.47,-1.01,-1.01,0,*7F
1504389613.22,6897,19.94,73500.5,0.45,-1.09,-1.09,0,*7C
1504389614.47,6898,19.94,73502.8,0.47,-1.09,-1.09,0,*71
1504389615.69,6899,19.94,73502.5,0.45,-1.01,-1.01,0,*72
1504389616.91,6900,19.94,73502.5,0.45,-1.09,-1.09,0,*73
1504389618.16,6901,19.94,73502.0,0.47,-1.09,-1.09,0,*70
1504389619.41,6902,19.94,73502.3,0.47,-1.01,-1.01,0,*73
1504389620.64,6903,19.94,73500.0,0.45,-1.01,-1.01,0,*70
1504389621.89,6904,19.94,73506.0,0.47,-1.01,-1.09,0,*7D
1504389623.13,6905,19.94,73506.0,0.47,-1.01,-1.09,0,*7C
1504389624.38,6906,19.94,73504.8,0.47,-1.01,-1.09,0,*7F
1504389625.63,6907,19.94,73504.3,0.47,-1.01,-1.01,0,*76
1504389626.86,6908,19.94,73508.3,0.45,-1.09,-1.01,0,*73
1504389628.08,6909,19.94,73506.3,0.45,-1.01,-1.09,0,*72
1504389629.3,6910,19.94,73508.3,0.45,-1.09,-1.01,0,*7A
1504389630.55,6911,19.94,73510.3,0.47,-1.01,-1.01,0,*71
1504389631.78,6912,19.94,73508.3,0.45,-1.01,-1.01,0,*70
1504389633.0,6913,19.94,73512.5,0.45,-1.09,-1.01,0,*79
1504389634.25,6914,19.94,73510.8,0.47,-1.01,-1.01,0,*74
1504389635.5,6915,19.94,73508.3,0.47,-1.01,-1.09,0,*7D
1504389636.75,6916,19.94,73508.8,0.47,-1.01,-1.01,0,*76
1504389637.98,6917,19.94,73510.3,0.45,-1.01,-1.01,0,*75
1504389639.23,6918,19.94,73504.8,0.47,-1.01,-1.09,0,*70
1504389640.47,6919,19.94,73506.8,0.47,-1.09,-1.01,0,*71
1504389641.7,6920,19.94,73508.5,0.45,-1.01,-1.01,0,*71
1504389642.95,6921,19.94,73506.8,0.47,-1.01,-1.01,0,*72
1504389644.2,6922,19.94,73504.8,0.47,-1.01,-1.01,0,*71
1504389645.42,6923,19.94,73502.5,0.45,-1.01,-1.09,0,*7A
1504389646.67,6924,19.94,73506.8,0.47,-1.01,-1.01,0,*77
1504389647.9,6925,19.94,73504.0,0.45,-1.01,-1.01,0,*74
1504389649.12,6926,19.94,73500.3,0.45,-1.01,-1.01,0,*77
1504389650.35,6927,19.94,73504.0,0.45,-1.01,-1.01,0,*76
1504389651.6,6928,19.94,73502.8,0.47,-1.01,-1.01,0,*7B
1504389652.83,6929,19.94,73502.5,0.45,-1.01,-1.01,0,*78
1504389654.05,6930,19.94,73504.3,0.45,-1.01,-1.01,0,*70
1504389655.28,6931,19.94,73504.0,0.45,-1.01,-1.01,0,*71
1504389656.5,6932,19.94,73504.8,0.45,-1.01,-1.01,0,*72
1504389657.73,6933,19.94,73500.5,0.45,-1.09,-1.01,0,*7B
1504389658.98,6934,19.94,73504.8,0.47,-1.01,-1.01,0,*76
1504389660.22,6935,19.94,73502.3,0.47,-1.01,-1.01,0,*77
1504389661.45,6936,19.94,73504.0,0.45,-1.01,-1.09,0,*7E
1504389662.7,6937,19.94,73502.0,0.47,-1.01,-1.01,0,*75
1504389663.93,6938,19.94,73504.3,0.45,-1.01,-1.01,0,*78
1504389665.18,6939,19.94,73502.5,0.47,-1.01,-1.01,0,*7B
1504389666.43,6940,19.94,73504.3,0.47,-1.01,-1.09,0,*7D
1504389667.65,6941,19.94,73506.0,0.45,-1.01,-1.09,0,*7E
1504389668.9,6942,19.94,73506.5,0.47,-1.01,-1.09,0,*7F
1504389670.15,6943,19.94,73502.8,0.47,-1.01,-1.01,0,*76
1504389671.4,6944,19.94,73496.8,0.47,-1.01,-1.01,0,*71
1504389672.65,6945,19.94,73498.5,0.47,-1.09,-1.01,0,*78
1504389673.87,6946,19.94,73496.5,0.45,-1.01,-1.01,0,*71
1504389675.1,6947,19.94,73496.0,0.45,-1.01,-1.01,0,*70
1504389676.32,6948,19.94,73498.5,0.45,-1.01,-1.09,0,*77
1504389677.55,6949,19.94,73498.3,0.45,-1.01,-1.01,0,*7E
1504389678.8,6950,19.94,73496.8,0.47,-1.01,-1.09,0,*7C
1504389680.05,6951,19.94,73496.5,0.47,-1.09,-1.01,0,*7D
1504389681.29,6952,19.94,73496.0,0.47,-1.09,-1.09,0,*76
1504389682.52,6953,19.94,73496.3,0.45,-1.01,-1.01,0,*75
1504389683.74,6954,19.94,73498.5,0.45,-1.01,-1.01,0,*72
1504389684.99,6955,19.94,73504.0,0.47,-1.01,-1.09,0,*79
1504389686.22,6956,19.94,73504.5,0.45,-1.01,-1.01,0,*70
1504389687.47,6957,19.94,73502.3,0.47,-1.01,-1.01,0,*73
1504389688.72,6958,19.94,73500.0,0.47,-1.01,-1.09,0,*74
1504389689.94,6959,19.94,73500.8,0.45,-1.01,-1.09,0,*77
1504389691.19,6960,19.94,73500.0,0.47,-1.09,-1.01,0,*7F
1504389692.43,6961,19.94,73502.5,0.47,-1.09,-1.01,0,*7E
1504389693.66,6962,19.94,73502.3,0.45,-1.01,-1.09,0,*7F
1504389694.91,6963,19.94,73504.3,0.47,-1.01,-1.01,0,*74
1504389696.16,6964,19.94,73506.0,0.47,-1.01,-1.01,0,*73
1504389697.41,6965,19.94,73504.3,0.47,-1.01,-1.09,0,*7A
1504389698.63,6966,19.94,73504.8,0.45,-1.09,-1.09,0,*73
1504389699.86,6967,19.94,73504.0,0.45,-1.01,-1.01,0,*72
1504389701.08,6968,19.94,73504.0,0.45,-1.13,-1.09,0,*76
1504389702.31,6969,19.94,73504.0,0.45,-1.13,-1.09,0,*77
1504389703.55,6970,19.94,73504.8,0.47,-1.09,-1.09,0,*76
1504389704.8,6971,19.94,73504.3,0.47,-1.09,-1.09,0,*77
1504389706.04,6972,19.94,73504.3,0.47,-1.09,-1.13,0,*7F
1504389707.27,6973,19.94,73504.3,0.45,-1.13,-1.01,0,*74
1504389708.51,6974,19.94,73502.3,0.47,-1.13,-1.13,0,*72
1504389709.72,6975,19.94,73504.8,0.45,-1.17,-1.09,0,*7E
1504389710.92,6976,19.94,73502.8,0.45,-1.13,-1.17,0,*76
1504389712.14,6977,19.94,73506.0,0.45,-1.13,-1.13,0,*73
1504389713.37,6978,19.94,73508.3,0.45,-1.13,-1.13,0,*7C
1504389714.59,6979,19.94,73500.0,0.45,-1.13,-1.13,0,*7D
1504389715.81,6980,19.94,73504.5,0.45,-1.13,-1.13,0,*7B
1504389717.03,6981,19.94,73502.0,0.45,-1.13,-1.13,0,*7A
1504389718.26,6982,19.94,73502.3,0.45,-1.13,-1.13,0,*79
1504389719.48,6983,19.94,73502.8,0.45,-1.13,-1.09,0,*73
1504389720.73,6984,19.94,73502.8,0.47,-1.13,-1.09,0,*76
1504389721.91,6985,19.94,73500.8,0.45,-1.17,-1.17,0,*7E
1504389723.14,6986,19.94,73502.8,0.45,-1.13,-1.09,0,*76
1504389724.39,6987,19.94,73506.3,0.47,-1.13,-1.09,0,*75
1504389725.61,6988,19.94,73502.0,0.45,-1.09,-1.09,0,*73
1504389726.86,6989,19.94,73504.5,0.47,-1.13,-1.13,0,*70
1504389728.1,6990,19.94,73504.0,0.47,-1.13,-1.09,0,*73
1504389729.35,6991,19.94,73504.5,0.47,-1.09,-1.09,0,*79
1504389730.57,6992,19.94,73500.0,0.45,-1.09,-1.09,0,*78
1504389731.79,6993,19.94,73500.5,0.45,-1.09,-1.09,0,*79
1504389733.02,6994,19.94,73498.5,0.45,-1.09,-1.09,0,*7E
1504389734.24,6995,19.94,73502.8,0.45,-1.09,-1.09,0,*7F
1504389735.46,6996,19.94,73502.3,0.45,-1.13,-1.01,0,*7F
1504389736.68,6997,19.94,73500.5,0.45,-1.09,-1.09,0,*7D
1504389737.93,6998,19.94,73502.8,0.47,-1.09,-1.09,0,*70
1504389739.16,6999,19.94,73502.3,0.45,-1.13,-1.09,0,*78
1504389740.38,7000,19.94,73504.0,0.45,-1.09,-1.09,0,*7B
1504389741.6,7001,19.94,73502.3,0.45,-1.09,-1.09,0,*7A
1504389742.82,7002,19.94,73504.0,0.45,-1.09,-1.09,0,*79
1504389744.04,7003,19.94,73500.8,0.45,-1.09,-1.09,0,*78
1504389745.26,7004,19.94,73506.0,0.45,-1.09,-1.13,0,*74
1504389746.51,7005,19.94,73504.0,0.47,-1.13,-1.01,0,*7F
1504389747.73,7006,19.94,73500.8,0.45,-1.09,-1.09,0,*7D
1504389748.98,7007,19.94,73504.0,0.47,-1.09,-1.01,0,*76
1504389750.2,7008,19.94,73506.8,0.45,-1.09,-1.09,0,*73
1504389751.45,7009,19.94,73502.3,0.47,-1.09,-1.01,0,*78
1504389752.69,7010,19.94,73502.5,0.47,-1.09,-1.13,0,*73
1504389753.94,7011,19.94,73502.8,0.47,-1.01,-1.09,0,*71
1504389755.17,7012,19.94,73500.0,0.45,-1.01,-1.09,0,*70
1504389756.39,7013,19.94,73500.5,0.45,-1.09,-1.09,0,*79
1504389757.61,7014,19.94,73502.8,0.45,-1.09,-1.09,0,*7E
1504389758.83,7015,19.94,73504.5,0.45,-1.09,-1.09,0,*7F
1504389760.05,7016,19.94,73500.5,0.45,-1.09,-1.09,0,*7C
1504389761.27,7017,19.94,73502.5,0.45,-1.09,-1.13,0,*76
1504389762.5,7018,19.94,73504.0,0.45,-1.01,-1.09,0,*7A
1504389763.72,7019,19.94,73500.3,0.45,-1.09,-1.09,0,*73
1504389764.97,7020,19.94,73500.5,0.47,-1.13,-1.09,0,*70
1504389766.2,7021,19.94,73500.8,0.45,-1.13,-1.09,0,*73
1504389767.44,7022,19.94,73504.5,0.47,-1.01,-1.09,0,*71
1504389768.67,7023,19.94,73504.8,0.45,-1.09,-1.01,0,*72
1504389769.89,7024,19.94,73506.0,0.45,-1.13,-1.09,0,*76
1504389771.11,7025,19.94,73504.3,0.45,-1.09,-1.09,0,*7C
1504389772.36,7026,19.94,73500.5,0.47,-1.09,-1.13,0,*76
1504389773.58,7027,19.94,73500.8,0.45,-1.13,-1.09,0,*75
1504389774.81,7028,19.94,73500.8,0.45,-1.01,-1.09,0,*79
1504389776.03,7029,19.94,73500.0,0.45,-1.09,-1.13,0,*7B
1504389777.25,7030,19.94,73498.8,0.45,-1.01,-1.09,0,*70
1504389778.47,7031,19.94,73502.3,0.45,-1.09,-1.01,0,*71
1504389779.69,7032,19.94,73500.5,0.45,-1.09,-1.13,0,*71
1504389780.92,7033,19.94,73498.8,0.45,-1.09,-1.01,0,*73
1504389782.14,7034,19.94,73502.8,0.45,-1.09,-1.09,0,*7C
1504389783.36,7035,19.94,73500.0,0.45,-1.09,-1.01,0,*75
1504389784.58,7036,19.94,73504.0,0.45,-1.09,-1.01,0,*76
1504389785.81,7037,19.94,73504.5,0.45,-1.09,-1.01,0,*77
1504389787.05,7038,19.94,73504.8,0.47,-1.09,-1.09,0,*72
1504389788.28,7039,19.94,73500.5,0.45,-1.01,-1.09,0,*79
1504389789.52,7040,19.94,73504.8,0.47,-1.09,-1.13,0,*76
1504389790.76,7041,19.94,73502.0,0.47,-1.09,-1.13,0,*77
1504389791.99,7042,19.94,73500.8,0.47,-1.17,-1.09,0,*70
1504389793.24,7043,19.94,73500.8,0.47,-1.01,-1.09,0,*76
1504389794.46,7044,19.94,73496.5,0.45,-1.09,-1.09,0,*7B
1504389795.71,7045,19.94,73496.3,0.47,-1.13,-1.09,0,*73
1504389796.96,7046,19.94,73500.0,0.47,-1.09,-1.13,0,*70
1504389798.18,7047,19.94,73502.3,0.45,-1.01,-1.13,0,*7B
1504389799.4,7048,19.94,73500.3,0.45,-1.09,-1.09,0,*77
1504389800.63,7049,19.94,73498.0,0.45,-1.13,-1.09,0,*7D
1504389801.88,7050,19.94,73498.8,0.47,-1.01,-1.09,0,*74
1504389803.1,7051,19.94,73500.5,0.45,-1.13,-1.09,0,*74
1504389804.35,7052,19.94,73500.0,0.47,-1.13,-1.09,0,*75
1504389805.6,7053,19.94,73500.8,0.47,-1.13,-1.09,0,*74
1504389806.85,7054,19.94,73502.0,0.47,-1.13,-1.13,0,*78
1504389808.08,7055,19.94,73498.8,0.47,-1.17,-1.09,0,*76
1504389809.32,7056,19.94,73500.0,0.47,-1.13,-1.09,0,*71
1504389810.55,7057,19.94,73502.5,0.45,-1.13,-1.09,0,*72
1504389811.77,7058,19.94,73498.0,0.45,-1.13,-1.09,0,*7D
1504389813.02,7059,19.94,73500.8,0.47,-1.13,-1.13,0,*75
1504389814.24,7060,19.94,73500.8,0.45,-1.13,-1.13,0,*7D
1504389815.46,7061,19.94,73500.5,0.45,-1.09,-1.13,0,*77
1504389816.71,7062,19.94,73502.8,0.47,-1.13,-1.09,0,*76
1504389817.96,7063,19.94,73502.3,0.47,-1.09,-1.13,0,*77
1504389819.2,7064,19.94,73502.5,0.47,-1.13,-1.13,0,*7B
1504389820.42,7065,19.94,73500.3,0.45,-1.09,-1.13,0,*73
1504389821.64,7066,19.94,73500.5,0.45,-1.09,-1.13,0,*70
1504389822.89,7067,19.94,73500.8,0.47,-1.13,-1.13,0,*78
1504389824.11,7068,19.94,73506.0,0.45,-1.13,-1.09,0,*7E
1504389825.34,7069,19.94,73500.0,0.45,-1.13,-1.09,0,*7F
1504389826.56,7070,19.94,73496.0,0.45,-1.13,-1.09,0,*77
1504389827.79,7071,19.94,73500.8,0.45,-1.13,-1.09,0,*76
1504389829.04,7072,19.94,73500.5,0.47,-1.09,-1.01,0,*74
1504389830.26,7073,19.94,73502.3,0.45,-1.01,-1.01,0,*7F
1504389831.51,7074,19.94,73500.8,0.47,-1.13,-1.09,0,*71
1504389832.73,7075,19.94,73502.3,0.45,-1.13,-1.09,0,*72
1504389833.96,7076,19.94,73502.3,0.45,-1.09,-1.01,0,*72
1504389835.21,7077,19.94,73502.3,0.47,-1.01,-1.09,0,*71
1504389836.43,7078,19.94,73500.0,0.45,-1.09,-1.01,0,*7C
1504389837.65,7079,19.94,73502.8,0.45,-1.09,-1.09,0,*75
1504389838.88,7080,19.94,73500.5,0.45,-1.13,-1.09,0,*78
1504389840.1,7081,19.94,73502.8,0.45,-1.13,-1.09,0,*79
1504389841.32,7082,19.94,73502.3,0.45,-1.09,-1.09,0,*71
1504389842.54,7083,19.94,73500.0,0.45,-1.09,-1.09,0,*70
1504389843.79,7084,19.94,73502.5,0.47,-1.09,-1.13,0,*7E
1504389845.01,7085,19.94,73502.5,0.45,-1.09,-1.13,0,*7D
1504389846.23,7086,19.94,73502.0,0.45,-1.01,-1.09,0,*7D
1504389847.45,7087,19.94,73502.3,0.45,-1.09,-1.09,0,*74
1504389848.68,7088,19.94,73504.8,0.45,-1.09,-1.09,0,*7B
1504389849.9,7089,19.94,73500.8,0.45,-1.09,-1.01,0,*72
1504389851.12,7090,19.94,73502.0,0.45,-1.09,-1.01,0,*7A
1504389852.34,7091,19.94,73500.5,0.45,-1.09,-1.09,0,*73
1504389853.59,7092,19.94,73498.3,0.47,-1.09,-1.09,0,*72
1504389854.83,7093,19.94,73498.5,0.47,-1.09,-1.09,0,*73
1504389856.08,7094,19.94,73498.3,0.47,-1.09,-1.09,0,*74
1504389857.31,7095,19.94,73500.5,0.45,-1.01,-1.09,0,*7F
1504389858.53,7096,19.94,73498.8,0.45,-1.09,-1.09,0,*74
1504389859.75,7097,19.94,73502.0,0.45,-1.01,-1.09,0,*7D
1504389860.97,7098,19.94,73498.3,0.45,-1.09,-1.09,0,*7A
1504389862.2,7099,19.94,73498.8,0.45,-1.01,-1.13,0,*78
1504389863.42,7100,19.94,73500.0,0.45,-1.09,-1.13,0,*71
1504389864.64,7101,19.94,73498.3,0.45,-1.09,-1.13,0,*70
1504389865.86,7102,19.94,73498.5,0.45,-1.13,-1.09,0,*73
1504389867.09,7103,19.94,73498.5,0.45,-1.13,-1.01,0,*7A
1504389868.31,7104,19.94,73498.3,0.45,-1.13,-1.09,0,*75
1504389869.53,7105,19.94,73496.5,0.45,-1.09,-1.13,0,*74
1504389870.75,7106,19.94,73502.3,0.45,-1.09,-1.13,0,*77
1504389871.99,7107,19.94,73500.0,0.47,-1.09,-1.13,0,*74
1504389873.22,7108,19.94,73500.5,0.45,-1.13,-1.09,0,*79
1504389874.47,7109,19.94,73500.3,0.47,-1.13,-1.09,0,*7A
1504389875.69,7110,19.94,73502.8,0.45,-1.13,-1.09,0,*70
1504389876.92,7111,19.94,73502.0,0.45,-1.13,-1.13,0,*7A
1504389878.14,7112,19.94,73500.8,0.45,-1.09,-1.09,0,*79
1504389879.36,7113,19.94,73500.0,0.45,-1.09,-1.13,0,*73
1504389880.58,7114,19.94,73500.3,0.45,-1.09,-1.13,0,*74
1504389881.8,7115,19.94,73496.5,0.45,-1.13,-1.09,0,*75
1504389883.05,7116,19.94,73498.0,0.47,-1.09,-1.09,0,*7F
1504389884.27,7117,19.94,73498.8,0.45,-1.09,-1.13,0,*77
1504389885.49,7118,19.94,73498.5,0.45,-1.09,-1.09,0,*73
1504389886.71,7119,19.94,73496.5,0.45,-1.09,-1.13,0,*79
1504389887.96,7120,19.94,73498.0,0.47,-1.13,-1.09,0,*71
1504389889.18,7121,19.94,73498.3,0.45,-1.01,-1.09,0,*71
1504389890.4,7122,19.94,73496.5,0.45,-1.01,-1.13,0,*79
1504389891.63,7123,19.94,73498.0,0.45,-1.09,-1.09,0,*7B
1504389892.85,7124,19.94,73494.3,0.45,-1.13,-1.09,0,*77
1504389894.08,7125,19.94,73492.8,0.45,-1.13,-1.09,0,*76
1504389895.3,7126,19.94,73498.3,0.45,-1.09,-1.09,0,*7E
1504389896.52,7127,19.94,73494.8,0.45,-1.09,-1.09,0,*7F
1504389897.77,7128,19.94,73492.8,0.47,-1.09,-1.09,0,*72
1504389899.01,7129,19.94,73492.5,0.47,-1.09,-1.09,0,*73
1504389900.26,7130,19.94,73498.3,0.47,-1.01,-1.13,0,*78
1504389901.49,7131,19.94,73498.5,0.45,-1.13,-1.01,0,*7B
1504389902.71,7132,19.94,73498.0,0.45,-1.09,-1.09,0,*7B
1504389903.93,7133,19.94,73496.5,0.45,-1.09,-1.01,0,*72
1504389905.15,7134,19.94,73498.5,0.45,-1.13,-1.09,0,*76
1504389906.38,7135,19.94,73496.5,0.45,-1.09,-1.09,0,*7C
1504389907.6,7136,19.94,73494.0,0.45,-1.09,-1.09,0,*7F
1504389908.84,7137,19.94,73498.0,0.47,-1.09,-1.13,0,*77
1504389910.06,7138,19.94,73492.0,0.45,-1.09,-1.13,0,*7A
1504389911.31,7139,19.94,73496.3,0.47,-1.09,-1.13,0,*79
1504389912.55,7140,19.94,73494.8,0.47,-1.09,-1.13,0,*77
1504389913.77,7141,19.94,73494.3,0.45,-1.13,-1.13,0,*7F
1504389914.99,7142,19.94,73492.3,0.45,-1.09,-1.13,0,*77
1504389916.23,7143,19.94,73496.0,0.47,-1.09,-1.13,0,*74
1504389917.44,7144,19.94,73494.8,0.45,-1.17,-1.13,0,*7E
1504389918.66,7145,19.94,73492.3,0.45,-1.13,-1.13,0,*7B
1504389919.89,7146,19.94,73496.0,0.45,-1.13,-1.09,0,*73
1504389921.13,7147,19.94,73492.8,0.47,-1.13,-1.13,0,*7B
1504389922.35,7148,19.94,73492.0,0.45,-1.09,-1.09,0,*76
1504389923.6,7149,19.94,73492.8,0.47,-1.09,-1.09,0,*75
1504389924.85,7150,19.94,73492.8,0.47,-1.09,-1.09,0,*7D
1504389926.09,7151,19.94,73490.3,0.47,-1.09,-1.09,0,*7C
1504389927.31,7152,19.94,73492.3,0.45,-1.09,-1.13,0,*76
1504389928.54,7153,19.94,73494.3,0.45,-1.01,-1.09,0,*74
1504389929.76,7154,19.94,73494.8,0.45,-1.01,-1.09,0,*73
1504389930.99,7155,19.94,73492.8,0.45,-1.13,-1.09,0,*71
1504389932.23,7156,19.94,73492.5,0.47,-1.13,-1.09,0,*70
1504389933.46,7157,19.94,73494.5,0.45,-1.09,-1.09,0,*78
1504389934.68,7158,19.94,73488.0,0.45,-1.09,-1.09,0,*77
1504389935.9,7159,19.94,73490.8,0.45,-1.09,-1.09,0,*76
1504389937.15,7160,19.94,73488.5,0.47,-1.09,-1.09,0,*7E
1504389938.37,7161,19.94,73494.0,0.45,-1.09,-1.09,0,*7D
1504389939.61,7162,19.94,73490.0,0.47,-1.09,-1.13,0,*77
1504389940.86,7163,19.94,73490.3,0.47,-1.09,-1.09,0,*7D
1504389942.1,7164,19.94,73488.0,0.47,-1.09,-1.09,0,*7A
1504389943.33,7165,19.94,73490.8,0.45,-1.13,-1.09,0,*72
1504389944.55,7166,19.94,73490.5,0.45,-1.09,-1.09,0,*7A
1504389945.78,7167,19.94,73490.0,0.45,-1.13,-1.09,0,*70
1504389947.0,7168,19.94,73484.0,0.45,-1.13,-1.09,0,*7F
1504389948.23,7169,19.94,73484.3,0.45,-1.13,-1.09,0,*7E
1504389949.45,7170,19.94,73484.3,0.45,-1.13,-1.09,0,*76
1504389950.7,7171,19.94,73486.8,0.47,-1.09,-1.09,0,*7E
1504389951.92,7172,19.94,73486.8,0.45,-1.01,-1.09,0,*77
1504389953.14,7173,19.94,73486.3,0.45,-1.09,-1.09,0,*7E
1504389954.37,7174,19.88,73486.0,0.45,-1.09,-1.09,0,*79
1504389955.62,7175,19.94,73486.0,0.47,-1.01,-1.09,0,*72
1504389956.84,7176,19.94,73484.8,0.45,-1.09,-1.01,0,*73
1504389958.08,7177,19.88,73482.3,0.47,-1.09,-1.13,0,*73
1504389959.3,7178,19.94,73484.0,0.45,-1.09,-1.01,0,*7D
1504389960.55,7179,19.94,73484.0,0.47,-1.09,-1.09,0,*76
1504389961.79,7180,19.94,73484.5,0.47,-1.09,-1.09,0,*70
1504389963.04,7181,19.94,73486.3,0.47,-1.01,-1.09,0,*79
1504389964.27,7182,19.94,73484.8,0.45,-1.09,-1.09,0,*70
1504389965.51,7183,19.94,73484.5,0.47,-1.09,-1.09,0,*73
1504389966.73,7184,19.94,73480.3,0.45,-1.09,-1.09,0,*76
1504389967.96,7185,19.94,73480.8,0.45,-1.01,-1.09,0,*7F
1504389969.18,7186,19.94,73482.0,0.45,-1.09,-1.09,0,*74
1504389970.43,7187,19.94,73480.3,0.47,-1.01,-1.09,0,*7F
1504389971.68,7188,19.94,73478.3,0.47,-1.09,-1.01,0,*70
1504389972.92,7189,19.94,73478.0,0.47,-1.09,-1.09,0,*79
1504389974.15,7190,19.94,73478.8,0.45,-1.09,-1.01,0,*7B
1504389975.39,7191,19.94,73480.5,0.47,-1.09,-1.01,0,*78
1504389976.64,7192,19.94,73480.5,0.47,-1.09,-1.09,0,*73
1504389977.86,7193,19.94,73478.0,0.45,-1.01,-1.01,0,*70
1504389979.09,7194,19.94,73482.3,0.45,-1.09,-1.01,0,*7F
1504389980.33,7195,19.94,73480.3,0.47,-1.01,-1.01,0,*74
1504389981.58,7196,19.94,73482.8,0.47,-1.01,-1.01,0,*77
1504389982.81,7197,19.94,73482.0,0.45,-1.09,-1.09,0,*74
1504389984.03,7198,19.94,73478.3,0.45,-1.09,-1.09,0,*7B
1504389985.25,7199,19.94,73482.8,0.45,-1.13,-1.09,0,*71
1504389986.48,7200,19.94,73480.0,0.45,-1.09,-1.09,0,*79
1504389987.7,7201,19.94,73478.0,0.45,-1.09,-1.09,0,*78
1504389988.92,7202,19.94,73478.8,0.45,-1.09,-1.01,0,*73
1504389990.14,7203,19.94,73482.0,0.45,-1.09,-1.01,0,*72
1504389991.36,7204,19.94,73478.8,0.45,-1.09,-1.01,0,*75
1504389992.61,7205,19.88,73478.5,0.47,-1.09,-1.09,0,*7E
1504389993.86,7206,19.94,73482.8,0.47,-1.13,-1.09,0,*76
1504389995.08,7207,19.88,73478.3,0.45,-1.09,-1.01,0,*76
1504389996.33,7208,19.94,73480.5,0.47,-1.09,-1.09,0,*73
1504389997.55,7209,19.94,73482.8,0.45,-1.09,-1.01,0,*78
1504389998.77,7210,19.94,73480.3,0.45,-1.01,-1.09,0,*70
1504390000.02,7211,19.94,73484.0,0.47,-1.09,-1.01,0,*73
1504390001.24,7212,19.94,73482.8,0.45,-1.09,-1.09,0,*7A
1504390002.49,7213,19.94,73484.0,0.47,-1.01,-1.09,0,*71
1504390003.74,7214,19.94,73484.3,0.47,-1.09,-1.01,0,*76
1504390004.98,7215,19.94,73482.3,0.47,-1.09,-1.09,0,*7F
1504390006.21,7216,19.94,73480.5,0.45,-1.09,-1.01,0,*76
1504390007.43,7217,19.94,73482.8,0.45,-1.09,-1.09,0,*7F
1504390008.65,7218,19.94,73480.5,0.45,-1.09,-1.01,0,*78
1504390009.9,7219,19.94,73476.3,0.47,-1.01,-1.09,0,*7B
1504390011.15,7220,19.94,73476.5,0.47,-1.09,-1.09,0,*79
1504390012.37,7221,19.94,73476.3,0.45,-1.09,-1.09,0,*7A
1504390013.59,7222,19.94,73474.3,0.45,-1.09,-1.09,0,*79
1504390014.81,7223,19.94,73474.5,0.45,-1.09,-1.01,0,*70
1504390016.03,7224,19.94,73476.5,0.45,-1.09,-1.01,0,*77
1504390017.28,7225,19.94,73478.0,0.47,-1.01,-1.09,0,*74
1504390018.5,7226,19.94,73476.0,0.45,-1.09,-1.13,0,*76
1504390019.75,7227,19.94,73472.8,0.47,-1.09,-1.09,0,*7E
1504390020.99,7228,19.94,73474.0,0.47,-1.09,-1.01,0,*79
1504390022.22,7229,19.94,73472.8,0.45,-1.13,-1.09,0,*79
1504390023.45,7230,19.94,73470.8,0.45,-1.01,-1.09,0,*72
1504390024.67,7231,19.94,73470.3,0.45,-1.09,-1.09,0,*7B
1504390025.89,7232,19.88,73470.0,0.45,-1.09,-1.09,0,*78
1504390027.13,7233,19.94,73472.0,0.47,-1.09,-1.09,0,*7B
1504390028.36,7234,19.94,73468.3,0.45,-1.09,-1.09,0,*7E
1504390029.6,7235,19.94,73470.0,0.47,-1.09,-1.09,0,*7D
1504390030.83,7236,19.94,73470.0,0.45,-1.01,-1.09,0,*74
1504390032.07,7237,19.94,73470.3,0.47,-1.09,-1.09,0,*7F
1504390033.29,7238,19.94,73470.3,0.45,-1.09,-1.09,0,*72
1504390034.52,7239,19.94,73472.3,0.45,-1.13,-1.01,0,*70
1504390035.74,7240,19.94,73472.8,0.45,-1.09,-1.09,0,*7D
1504390036.97,7241,19.94,73472.3,0.45,-1.01,-1.09,0,*74
1504390038.19,7242,19.94,73478.3,0.45,-1.01,-1.01,0,*7F
1504390039.41,7243,19.94,73472.5,0.45,-1.09,-1.01,0,*76
1504390040.64,7244,19.94,73478.3,0.45,-1.09,-1.09,0,*79
1504390041.89,7245,19.94,73478.0,0.47,-1.01,-1.09,0,*72
1504390043.13,7246,19.94,73472.8,0.47,-1.09,-1.01,0,*71
1504390044.38,7247,19.94,73472.5,0.47,-1.01,-1.09,0,*70
1504390045.61,7248,19.94,73472.3,0.45,-1.01,-1.09,0,*7D
1504390046.83,7249,19.94,73474.5,0.45,-1.09,-1.01,0,*7C
1504390048.05,7250,19.94,73472.8,0.45,-1.09,-1.09,0,*7C
1504390049.3,7251,19.94,73474.0,0.47,-1.09,-1.09,0,*7F
1504390050.54,7252,19.94,73472.8,0.47,-1.09,-1.09,0,*7C
1504390051.76,7253,19.94,73472.5,0.45,-1.09,-1.01,0,*77
1504390052.99,7254,19.94,73472.3,0.45,-1.09,-1.09,0,*78
1504390054.23,7255,19.94,73472.8,0.47,-1.09,-1.13,0,*70
1504390055.45,7256,19.94,73476.5,0.45,-1.09,-1.13,0,*71
1504390056.67,7257,19.94,73472.0,0.45,-1.09,-1.09,0,*7B
1504390057.9,7258,19.94,73474.0,0.45,-1.01,-1.09,0,*7C
1504390059.12,7259,19.94,73472.3,0.45,-1.09,-1.01,0,*7D
1504390060.34,7260,19.94,73476.0,0.45,-1.09,-1.01,0,*77
1504390061.56,7261,19.94,73472.0,0.45,-1.09,-1.01,0,*76
1504390062.79,7262,19.94,73472.0,0.45,-1.09,-1.01,0,*75
1504390064.03,7263,19.88,73470.3,0.47,-1.09,-1.09,0,*7E
1504390065.25,7264,19.94,73472.8,0.45,-1.09,-1.13,0,*70
1504390066.47,7265,19.94,73472.8,0.45,-1.09,-1.09,0,*7A
1504390067.72,7266,19.94,73470.3,0.47,-1.13,-1.01,0,*78
1504390068.95,7267,19.88,73470.8,0.45,-1.09,-1.09,0,*78
1504390070.19,7268,19.94,73470.8,0.47,-1.01,-1.09,0,*7D
1504390071.42,7269,19.94,73466.5,0.45,-1.09,-1.01,0,*7E
1504390072.66,7270,19.94,73464.3,0.47,-1.09,-1.09,0,*7C
1504390073.91,7271,19.94,73464.8,0.47,-1.09,-1.01,0,*75
1504390075.16,7272,19.94,73460.8,0.47,-1.01,-1.01,0,*7E
1504390076.38,7273,19.94,73460.3,0.45,-1.09,-1.01,0,*75
1504390077.61,7274,19.94,73456.8,0.45,-1.01,-1.09,0,*72
1504390078.83,7275,19.94,73462.8,0.45,-1.01,-1.09,0,*73
1504390080.06,7276,19.94,73458.5,0.45,-1.01,-1.01,0,*78
1504390081.3,7277,19.88,73456.3,0.47,-1.09,-1.09,0,*7B
1504390082.53,7278,19.94,73458.8,0.45,-1.09,-1.09,0,*76
1504390083.75,7279,19.94,73454.3,0.45,-1.09,-1.09,0,*77
1504390084.97,7280,19.94,73458.5,0.45,-1.01,-1.09,0,*79
1504390086.22,7281,19.94,73458.8,0.47,-1.01,-1.01,0,*72
1504390087.44,7282,19.88,73456.5,0.45,-1.09,-1.01,0,*7B
1504390088.67,7283,19.94,73456.0,0.45,-1.09,-1.01,0,*7A
1504390089.89,7284,19.94,73458.8,0.45,-1.09,-1.09,0,*75
1504390091.14,7285,19.94,73456.3,0.47,-1.09,-1.01,0,*7E
1504390092.38,7286,19.88,73456.3,0.47,-1.09,-1.01,0,*7D
1504390093.61,7287,19.88,73454.3,0.45,-1.13,-1.09,0,*7D
1504390094.85,7288,19.94,73456.5,0.47,-1.09,-1.01,0,*73
1504390096.08,7289,19.88,73452.5,0.45,-1.09,-1.01,0,*70
1504390097.3,7290,19.88,73452.0,0.45,-1.09,-1.09,0,*70
1504390098.52,7291,19.94,73456.8,0.45,-1.09,-1.01,0,*79
1504390099.74,7292,19.94,73456.0,0.45,-1.09,-1.01,0,*7A
1504390100.99,7293,19.94,73454.5,0.47,-1.01,-1.01,0,*71
1504390102.21,7294,19.88,73452.8,0.45,-1.09,-1.01,0,*7C
1504390103.46,7295,19.94,73456.3,0.47,-1.01,-1.01,0,*77
1504390104.69,7296,19.88,73454.5,0.45,-1.01,-1.01,0,*76
1504390105.92,7297,19.94,73456.0,0.45,-1.01,-1.01,0,*77
1504390107.16,7298,19.94,73458.3,0.47,-1.01,-1.09,0,*72
1504390108.39,7299,19.94,73458.5,0.45,-1.09,-1.01,0,*71
1504390109.61,7300,19.88,73452.5,0.45,-1.01,-1.01,0,*78
1504390110.84,7301,19.88,73454.5,0.45,-1.09,-1.01,0,*71
1504390112.06,7302,19.88,73452.3,0.45,-1.09,-1.09,0,*7A
1504390113.31,7303,19.88,73454.5,0.47,-1.01,-1.01,0,*79
1504390114.53,7304,19.94,73454.5,0.45,-1.09,-1.01,0,*74
1504390115.75,7305,19.94,73456.3,0.45,-1.01,-1.09,0,*75
1504390116.98,7306,19.94,73456.0,0.45,-1.09,-1.01,0,*76
1504390118.2,7307,19.94,73458.0,0.45,-1.01,-1.09,0,*77
1504390119.42,7308,19.94,73458.5,0.45,-0.97,-1.01,0,*4E
1504390120.65,7309,19.88,73454.3,0.45,-1.09,-1.01,0,*79
1504390121.89,7310,19.94,73458.5,0.47,-1.09,-1.09,0,*7B
1504390123.12,7311,19.88,73454.8,0.45,-1.01,-1.01,0,*78
1504390124.36,7312,19.88,73454.8,0.47,-1.09,-1.01,0,*71
1504390125.59,7313,19.88,73456.0,0.45,-1.01,-1.01,0,*7A
1504390126.82,7314,19.88,73454.8,0.45,-1.01,-1.01,0,*7D
1504390128.04,7315,19.88,73456.5,0.45,-1.01,-1.01,0,*7C